Location: Rio Tanui
(39.9167°N, 8.5167°E)
Time: 15:40:19
(UTC+00:00)

Meteor 2-2 Rocket - Pass Details

Date: 20 June 2024
Orbit: 851 x 928 km, 81.3° (Epoch: 18 July)

Event Time Altitude Azimuth Distance (km) Brightness Sun altitude
Rises 03:10:50 0° 345° (NNW) 3,430 7.7 -8.1°
Reaches altitude 10° 03:13:18 10° 341° (NNW) 2,488 6.9 -7.7°
Maximum altitude 03:18:44 52° 266° (W) 1,048 4.4 -6.9°
Drops below altitude 10° 03:24:10 10° 191° (S) 2,480 6.2 -6.1°
Sets 03:26:38 0° 187° (S) 3,419 6.9 -5.7°
